DW0489 Weather Reports


time (UTC)temp
C
wind
direction
speed
KPH
gust
KPH
rain 1hr
cm
rain 24hr
cm
rain mn
cm
humidity
%
barometer
mb
20260905201512 25 20 3.2 11.3 0.00 0.00 0.00 58 1010.6
20260905200012 26 52 8.0 16.1 0.00 0.00 0.00 60 1010.5
20260905194533 26 56 8.0 14.5 0.00 0.00 0.00 61 1010.4
20260905193031 25 309 4.8 14.5 0.00 0.00 0.00 60 1010.6
20260905191527 26 351 1.6 17.7 0.00 0.00 0.00 60 1010.6
20260905190026 25 9 3.2 14.5 0.00 0.00 0.00 63 1010.6
20260905184520 24 16 8.0 16.1 0.00 0.00 0.00 62 1010.8
20260905183017 25 296 6.4 12.9 0.00 0.00 0.00 63 1010.6
20260905181512 25 330 4.8 12.9 0.00 0.00 0.00 62 1010.9
20260905180030 25 309 1.6 12.9 0.00 0.00 0.00 65 1010.9
20260905174533 24 284 8.0 20.9 0.00 0.00 0.00 63 1011.1
20260905173032 24 299 3.2 14.5 0.00 0.00 0.00 64 1011.1
20260905171539 24 317 6.4 14.5 0.00 0.00 0.00 65 1011.2
20260905170029 23 304 1.6 11.3 0.00 0.00 0.00 67 1011.3
20260905164519 24 309 6.4 16.1 0.00 0.00 0.00 67 1011.2
20260905163018 24 305 6.4 16.1 0.00 0.00 0.00 65 1011.3
20260905161538 24 339 4.8 16.1 0.00 0.00 0.00 67 1011.2
20260905160043 23 48 6.4 14.5 0.00 0.00 0.00 65 1011.2
20260905154546 23 62 6.4 17.7 0.00 0.00 0.00 67 1011.2
20260905153029 23 72 8.0 17.7 0.00 0.00 0.00 70 1011.4
20260905151525 22 329 3.2 16.1 0.00 0.00 0.00 74 1011.3
20260905150020 22 78 1.6 16.1 0.00 0.00 0.00 72 1011.3
20260905144543 22 66 6.4 19.3 0.00 0.00 0.00 73 1011.4
20260905143034 21 8 9.7 16.1 0.00 0.00 0.00 75 1011.2
20260905141532 21 301 8.0 14.5 0.00 0.00 0.00 76 1011.1
20260905140035 21 326 6.4 14.5 0.00 0.00 0.00 78 1011.2
20260905134503 21 311 6.4 17.7 0.00 0.00 0.00 79 1011.2
20260905133009 21 289 4.8 16.1 0.00 0.00 0.00 79 1011.3
20260905131509 21 40 3.2 19.3 0.00 0.00 0.00 80 1011.3
20260905130015 20 320 8.0 17.7 0.00 0.00 0.00 81 1011.5
20260905124511 20 352 6.4 14.5 0.00 0.00 0.00 82 1011.6
20260905123008 20 22 0.0 6.4 0.00 0.00 0.00 83 1011.6
20260905121508 20 324 1.6 11.3 0.00 0.00 0.00 83 1011.6
20260905120004 19 352 0.0 12.9 0.00 0.00 0.00 86 1011.6
20260905114509 18 258 0.0 3.2 0.00 0.00 0.00 88 1011.4
20260905113008 17 297 3.2 9.7 0.00 0.00 0.00 90 1011.2
20260905111510 17 304 1.6 6.4 0.00 0.00 0.00 90 1011.1
20260905110007 17 226 0.0 3.2 0.00 0.00 0.00 89 1011.0
20260905104512 17 245 1.6 3.2 0.00 0.00 0.00 87 1010.9
20260905103008 18 209 0.0 4.8 0.00 0.00 0.00 84 1010.8
20260905101512 18 359 0.0 6.4 0.00 0.00 0.00 83 1010.4
20260905100011 18 316 1.6 12.9 0.00 0.00 0.00 82 1010.4
20260905094510 18 278 3.2 14.5 0.00 0.00 0.00 82 1010.3
20260905093012 18 283 4.8 12.9 0.00 0.00 0.00 82 1010.3
20260905091510 18 318 1.6 11.3 0.00 0.00 0.00 81 1010.3
20260905090019 18 325 4.8 9.7 0.00 0.00 0.00 81 1010.3
20260905084512 19 316 1.6 6.4 0.00 0.00 0.00 80 1010.3
20260905083014 19 308 3.2 11.3 0.00 0.03 0.00 79 1010.4
20260905081512 19 330 4.8 17.7 0.00 0.03 0.00 78 1010.4
20260905080027 20 300 4.8 12.9 0.00 0.05 0.00 78 1010.4
20260905074516 20 330 1.6 12.9 0.00 0.13 0.00 77 1010.4
20260905073032 20 4 4.8 12.9 0.00 0.28 0.00 76 1010.4
20260905071515 20 259 8.0 14.5 0.00 0.86 0.00 76 1010.4
20260905070013 20 327 6.4 14.5 0.00 0.89 0.00 75 1010.6
20260905064515 20 39 4.8 14.5 0.00 0.89 0.00 76 1010.7
20260905063018 20 344 4.8 19.3 0.00 0.89 0.00 76 1010.7
20260905061515 20 299 6.4 12.9 0.00 0.89 0.00 76 1010.8
20260905060018 20 360 6.4 16.1 0.00 0.89 0.00 75 1011.0
20260905054515 21 349 3.2 12.9 0.00 0.89 0.00 74 1011.2
20260905053021 21 57 9.7 14.5 0.00 0.89 0.00 74 1011.3
20260905051514 21 278 8.0 22.5 0.00 0.89 0.00 74 1011.4
20260905050015 20 301 4.8 12.9 0.00 0.89 0.00 77 1011.4
20260905044522 18 359 3.2 6.4 0.00 0.89 0.00 85 1011.7
20260905043015 18 311 3.2 6.4 0.00 0.89 0.00 91 1011.7
20260905041516 18 289 1.6 3.2 0.00 0.89 0.00 92 1011.7
20260905040020 18 299 0.0 3.2 0.00 0.89 0.00 92 1011.8
20260905034526 18 289 3.2 4.8 0.00 0.89 0.89 92 1011.8
20260905033017 18 300 1.6 3.2 0.00 0.89 0.89 92 1011.7
20260905031518 18 300 0.0 3.2 0.00 0.89 0.89 92 1011.6
20260905030020 18 270 0.0 3.2 0.00 0.89 0.89 92 1011.7
20260905024516 19 270 0.0 0.0 0.00 0.89 0.89 91 1011.6
20260905023026 19 270 0.0 0.0 0.00 0.89 0.89 92 1011.6
20260905021528 19 270 0.0 4.8 0.00 0.89 0.89 91 1011.6
20260905020035 20 297 0.0 1.6 0.00 0.89 0.89 91 1011.6
20260905014534 20 297 1.6 4.8 0.00 0.89 0.89 91 1011.6
20260905013030 20 297 0.0 0.0 0.00 0.89 0.89 91 1011.7
20260905011532 20 297 0.0 3.2 0.00 0.89 0.89 91 1011.7
20260905010031 20 297 1.6 3.2 0.00 0.89 0.89 90 1011.6
20260905004525 21 297 0.0 3.2 0.00 0.89 0.89 90 1011.7
20260905003024 21 297 3.2 4.8 0.00 0.89 0.89 90 1011.5
20260905001536 21 303 3.2 6.4 0.00 0.89 0.89 90 1011.5
20260905000037 21 296 3.2 4.8 0.00 0.89 0.89 89 1011.4
20260904234542 21 291 3.2 3.2 0.00 0.89 0.89 88 1011.4
20260904233029 22 291 1.6 3.2 0.00 0.89 0.89 86 1011.1
20260904231530 22 291 0.0 3.2 0.00 0.89 0.89 83 1011.2
20260904230027 23 291 0.0 3.2 0.00 0.89 0.89 81 1011.3
20260904224539 24 291 0.0 0.0 0.00 0.89 0.89 77 1011.2
20260904223017 25 307 0.0 3.2 0.00 0.89 0.89 72 1011.1
20260904221520 26 353 0.0 4.8 0.00 0.89 0.89 66 1011.1
20260904220013 26 39 0.0 3.2 0.00 0.89 0.89 66 1011.0
20260904214513 26 303 0.0 6.4 0.00 0.89 0.89 64 1011.0
20260904213024 26 1 1.6 4.8 0.00 0.89 0.89 65 1011.0
20260904211527 27 334 1.6 3.2 0.00 0.89 0.89 64 1011.0
20260904210038 27 303 0.0 4.8 0.00 0.89 0.89 60 1011.1
20260904204519 27 306 1.6 9.7 0.00 0.89 0.89 60 1011.2
20260904203024 28 288 6.4 12.9 0.00 0.89 0.89 58 1011.2